TIME,DELAY(SENSOR),PRES,T(CTD),SAL,OXYGEN,RAWTEMP,T(OPTODE),TCPHASE,TURBIDITY,TURBIDITY_GAIN,FLUOR,BETA,CDOM,ED411.5,ED443.8,ED489.6,PAR,COMP,TILT,TILTY(TILT),CHECK
1341430005,6504,257.6000061035156000,4.8551998138427730,34.9653015136718750,335.8944091796875000,762.8552856445312000,4.8363041877746580,34.6186294555664060,17,3,49,116,65,2147244703,2147559181,2147569101,2147364845,1785,0,-12,49419
1341430066,6468,254.4100036621093800,4.8801999092102050,34.9673995971679700,335.7022094726562500,762.4882202148438000,4.8491649627685550,34.6185111999511700,16,3,49,116,66,2147246847,2147559062,2147568507,2147363354,1486,0,-12,15944
1341430127,6469,251.1699981689453000,4.8892002105712890,34.9679985046386700,334.9495849609375000,762.1995849609375000,4.8592700958251950,34.6392288208007800,12,3,50,120,65,2147246216,2147558724,2147574404,2147361334,1171,0,-12,15106
1341430188,6467,247.9299926757812500,4.9053997993469240,34.9692001342773440,334.1932983398437500,761.6857299804688000,4.8772659301757810,34.6558914184570300,16,3,50,117,66,2147243889,2147559391,2147570011,2147362225,803,0,-12,18072
1341430249,6467,244.6699981689453000,4.8987998962402340,34.9681015014648440,334.0938110351562500,761.8380737304688000,4.8719310760498050,34.6624488830566400,16,3,49,116,66,2147243775,2147559757,2147568772,2147359665,238,0,-12,39809
1341430311,6467,241.3600006103515600,4.8867001533508300,34.9658012390136700,335.1278991699219000,762.1857299804688000,4.8597559928894040,34.6324996948242200,16,3,50,116,66,2147246491,2147558875,2147573165,2147359227,3408,0,-12,62112
1341430372,6468,238.1000061035156200,4.8747000694274900,34.9616012573242200,337.0216064453125000,762.5281982421875000,4.8477611541748050,34.5724983215332000,16,3,50,117,65,2147244214,2147559638,2147570472,2147359917,2848,0,-12,6064
1341430433,6468,234.8399963378906200,4.8709001541137695,34.9614982604980500,338.4992065429687500,762.6265869140625000,4.8443131446838380,34.5225791931152340,16,3,50,117,65,2147241896,2147556772,2147570170,2147363615,2346,0,-12,64424
1341430494,6469,231.6600036621093800,4.8853998184204100,34.9618988037109400,339.2243957519531000,762.1937866210938000,4.8594741821289060,34.4883689880371100,16,3,50,115,64,2147244639,2147560155,2147572246,2147363103,1890,0,-12,58008
1341430555,6465,228.5500030517578000,4.9387998580932620,34.9678993225097660,338.7637023925781000,760.8513793945312000,4.9064731597900390,34.4775505065918000,14,3,48,124,65,2147245563,2147560502,2147570386,2147361233,1679,0,-12,43141
1341430619,6468,225.3899993896484400,4.9175000190734860,34.9636001586914060,339.2391052246094000,761.2324829101562000,4.8931331634521480,34.4684791564941400,16,3,49,120,65,2147243926,2147558664,2147571830,2147362371,1285,0,-12,47175
1341430680,6468,222.3600006103515600,4.9302000999450680,34.9632987976074200,340.0079956054687500,761.0056762695312000,4.9010720252990720,34.4373283386230500,16,3,50,114,66,2147247011,2147557782,2147572182,2147361832,976,0,-12,16566
1341430744,6469,219.2599945068359400,4.9562001228332520,34.9662017822265600,339.6982116699219000,760.1641845703125000,4.9305229187011720,34.4313011169433600,16,3,49,117,64,2147243026,2147560516,2147570952,2147360287,554,0,-12,46348
1341430805,6467,216.3500061035156200,4.9690999984741210,34.9687995910644500,338.6521911621094000,759.8969726562500000,4.9398770332336430,34.4626388549804700,11,3,49,115,64,2147243867,2147558156,2147570404,2147361699,3487,0,-12,1598
1341430869,6466,213.2899932861328000,4.9510002136230470,34.9637985229492200,338.8331909179687500,759.9379272460938000,4.9384441375732420,34.4568290710449200,16,3,50,116,64,2147243862,2147560598,2147571520,2147360489,2906,0,-12,33302
1341430931,6466,210.3500061035156200,5.0083999633789060,34.9711990356445300,337.8717956542969000,758.6649780273438000,4.9829668998718260,34.4654617309570300,12,3,48,116,64,2147244506,2147560228,2147572246,2147360543,2550,0,-12,36244
1341430995,6468,207.3399963378906200,4.9902000427246090,34.9674987792968750,338.4956970214844000,759.1928100585938000,4.9645061492919920,34.4542083740234400,16,3,50,124,65,2147245686,2147557608,2147572241,2147361389,2178,0,-12,29102
1341431056,6466,204.4799957275390600,4.9882998466491700,34.9660987854003900,339.5138854980469000,759.2625122070312000,4.9620690345764160,34.4198188781738300,16,3,50,118,66,2147248109,2147561521,2147572132,2147359675,1884,0,-12,4269
1341431120,6467,201.4700012207031200,4.9376997947692870,34.9589004516601560,341.9049072265625000,760.6182861328125000,4.9146327972412110,34.3637313842773440,16,3,52,117,64,2147247245,2147560575,2147574020,2147363030,1591,0,-12,287
1341431184,6468,198.4600067138672000,5.0156002044677730,34.9654006958007800,343.5931091308594000,758.8690185546875000,4.9758319854736330,34.2703895568847660,17,3,52,118,64,2147245480,2147560895,2147573147,2147362563,1344,0,-12,64370
1341431248,6468,195.4299926757812500,5.1103000640869140,34.9812011718750000,344.2825012207031000,756.8989257812500000,5.0447030067443850,34.2078514099121100,16,3,51,114,64,2147247917,2147559167,2147575533,2147359875,857,0,-12,46644
1341431309,6469,192.6499938964843800,5.1409001350402830,34.9687995910644500,343.6742858886719000,754.7794799804688000,5.1187248229980470,34.1871910095214840,16,3,50,114,64,2147246426,2147560987,2147573499,2147364955,395,0,-12,53137
1341431373,6467,189.7899932861328000,5.1834998130798340,34.9907989501953100,343.2854919433594000,753.9005126953125000,5.1494078636169430,34.1831398010253900,16,3,50,114,66,2147243734,2147557549,2147573238,2147359290,3496,0,-12,65023
1341431434,6469,187.0200042724609400,5.2209000587463380,34.9942016601562500,342.9385070800781000,752.9520263671875000,5.1825032234191895,34.1763801574707000,16,3,50,112,65,2147244630,2147558687,2147575103,2147364008,3066,0,-12,16425
1341431498,6504,184.1699981689453000,5.2442998886108400,34.9966011047363300,342.0845947265625000,752.1599121093750000,5.2101330757141110,34.1903915405273440,16,3,50,116,64,2147240534,2147560447,2147576419,2147362856,2704,0,-12,40017
1341431560,6466,181.4400024414062500,5.2631998062133790,34.9994010925293000,342.2984924316406000,751.6520996093750000,5.2278351783752440,34.1730117797851560,16,3,48,119,65,2147244419,2147559606,2147577471,2147361293,2479,0,-12,51673
1341431624,6468,178.6699981689453000,5.2786002159118650,34.9990997314453100,342.2315063476562500,751.0949707031250000,5.2472572326660160,34.1642417907714840,16,3,50,122,65,2147242271,2147557105,2147576730,2147362851,2162,0,-12,22524
1341431685,6502,176.0200042724609400,5.2944002151489260,35.0007019042968750,342.1741027832031000,750.5546875000000000,5.2660870552062990,34.1557312011718750,16,3,50,118,65,2147244466,2147557746,2147577389,2147362075,1811,0,-12,57062
1341431749,6467,173.2200012207031200,5.3109002113342285,35.0015983581543000,342.1276855468750000,750.0933837890625000,5.2821621894836430,34.1484489440918000,16,3,50,125,65,2147246952,2147559323,2147578043,2147359821,1568,0,-12,1310
1341431810,6469,170.4700012207031200,5.3119997978210450,35.0004005432128900,342.2124938964844000,750.0339965820312000,5.2842311859130860,34.1442184448242200,16,3,50,123,64,2147244502,2147557672,2147576082,2147363981,1388,0,-12,57355
1341431874,6468,167.5299987792968800,5.3145999908447270,35.0007019042968750,342.3351135253906000,749.9182739257812000,5.2882609367370605,34.1376914978027340,16,3,50,121,64,2147241458,2147559309,2147576635,2147359647,1160,0,-12,38320
1341431935,6468,164.7500000000000000,5.3239002227783200,35.0010986328125000,342.3228149414062500,749.7324218750000000,5.2947387695312500,34.1346397399902340,16,3,50,124,64,2147243999,2147559629,2147576475,2147363300,908,0,-11,22911
1341431999,6467,161.9400024414062500,5.3695998191833500,35.0040016174316400,341.6036987304687500,748.5244750976562000,5.3368067741394040,34.1359596252441400,15,3,50,119,66,2147243391,2147558897,2147578024,2147358724,396,0,-12,28250
1341432060,6465,159.2799987792968800,5.3828001022338870,35.0050010681152340,340.9175109863281000,748.1016235351562000,5.3515300750732420,34.1512489318847660,12,3,50,138,64,2147244378,2147558724,2147581252,2147360754,3361,0,-12,32643
1341432124,6468,156.5299987792968800,5.3854999542236330,35.0054016113281250,340.6994018554687500,747.9166870117188000,5.3579668998718260,34.1551208496093750,16,3,50,126,64,2147242262,2147558258,2147584251,2147362060,3097,0,-12,59662
1341432186,6467,153.9199981689453000,5.3896999359130860,35.0056991577148440,340.5747070312500000,747.7338256835938000,5.3643298149108890,34.1560897827148440,16,3,50,123,65,2147243331,2147559501,2147584634,2147361238,2815,0,-12,6169
1341432250,6467,151.2500000000000000,5.4029002189636230,35.0069999694824200,340.9244079589844000,747.4379882812500000,5.3746280670166020,34.1380310058593750,21,3,50,121,64,2147243715,2147559080,2147584964,2147364506,2611,0,-12,9510
1341432311,6467,148.7100067138672000,5.3976998329162600,35.0051994323730500,341.4708862304687500,747.4932861328125000,5.3727021217346190,34.1201591491699200,16,3,50,126,64,2147242577,2147559899,2147585434,2147360566,2420,0,-12,61026
1341432375,6468,146.0200042724609400,5.3990998268127440,35.0046997070312500,341.4796142578125000,747.4846801757812000,5.3730030059814450,34.1200408935546900,16,3,50,124,64,2147246084,2147562313,2147585302,2147362596,2128,0,-12,45825
1341432436,6502,143.4900054931640600,5.4079999923706055,35.0051002502441400,341.1954956054687500,747.2379760742188000,5.3815860748291020,34.1247596740722660,16,3,50,135,64,2147242628,2147560923,2147587986,2147362348,1847,0,-12,23250
1341432500,6469,140.8899993896484400,5.4348998069763180,35.0066986083984400,340.9215087890625000,746.5482177734375000,5.4055919647216800,34.1211509704589840,16,3,50,124,64,2147241769,2147558591,2147589434,2147361933,1645,0,-12,55597
1341432561,6468,138.4600067138672000,5.4609999656677250,35.0074005126953100,340.7251892089844000,745.8812866210938000,5.4287872314453125,34.1147193908691400,16,3,50,124,64,2147242089,2147560356,2147587715,2147363117,1266,0,-12,59599
1341432653,6468,134.0000000000000000,5.4746999740600590,35.0085983276367200,340.2409973144531000,745.3656005859375000,5.4467220306396480,34.1214714050293000,16,3,50,130,64,2147245416,2147558865,2147593110,2147364292,758,0,-12,39689
1341432714,6468,130.0700073242187500,5.4854998588562010,35.0088005065918000,339.3449096679687500,744.8679809570312000,5.4640221595764160,34.1430015563964840,16,3,50,136,64,2147242075,2147560219,2147596803,2147362756,205,0,-12,20464
1341432778,6468,125.9800033569336000,5.5187997817993160,35.0093994140625000,339.9447021484375000,744.1077270507812000,5.4904499053955080,34.1072807312011700,16,3,51,140,64,2147240173,2147561110,2147602381,2147366349,2900,0,-12,56965
1341432840,6466,122.0000000000000000,5.5378999710083010,35.0105018615722660,340.2680053710937500,743.4929199218750000,5.5118160247802730,34.0842399597168000,16,3,50,131,64,2147244662,2147561270,2147606084,2147365097,2580,0,-12,19748
1341432928,6467,117.1299972534179700,5.5531001091003420,35.0079002380371100,340.1239013671875000,743.0949707031250000,5.5256390571594240,34.0817108154296900,16,3,50,136,65,2147241837,2147561836,2147609242,2147366600,2190,0,-12,18045
1341432989,6469,114.6100006103515600,5.5739998817443850,35.0092010498046900,340.6000976562500000,742.5465087890625000,5.5446891784667970,34.0544509887695300,16,3,52,127,64,2147242842,2147564434,2147613324,2147365334,2002,0,-11,64303
1341433053,6465,112.1500015258789000,5.6318001747131350,35.0112991333007800,340.6893005371094000,740.9915771484375000,5.5986771583557130,34.0211906433105500,19,3,50,127,64,2147241956,2147566157,2147619231,2147368255,1663,0,-12,53327
1341433114,6466,109.8300018310546900,5.6104001998901370,35.0079002380371100,339.8252868652344000,741.4415283203125000,5.5830569267272950,34.0599403381347660,13,3,52,131,65,2147241860,2147563574,2147624123,2147371030,1531,0,-12,37773
1341433203,6467,105.8600006103515600,5.6698999404907230,35.0145988464355500,339.4460144042969000,739.6187744140625000,5.6463108062744140,34.0379905700683600,16,3,51,133,64,2147243410,2147567131,2147634646,2147370673,1036,0,-12,57956
1341433264,6468,102.3099975585937500,5.6925001144409180,35.0143013000488300,340.0831909179687500,739.2946166992188000,5.6575551033020020,34.0096015930175800,16,3,52,131,64,2147243075,2147571496,2147642723,2147373805,571,0,-12,27774
1341433328,6503,98.6399993896484400,5.5493998527526855,34.9905014038085940,343.1531066894531000,743.7805786132812000,5.5018181800842285,33.9902381896972660,16,3,58,132,64,2147244328,2147571739,2147650413,2147371930,3542,0,-12,14326
1341433389,6467,95.2900009155273400,5.4962000846862790,34.9768981933593750,343.6498107910156000,745.4971923828125000,5.4421439170837400,34.0066108703613300,16,3,60,133,64,2147243035,2147574052,2147660635,2147376169,2953,0,-12,63635
1341433453,6468,91.9199981689453100,5.7302999496459960,34.9956016540527340,340.2484130859375000,738.7667846679688000,5.6758589744567870,33.9938392639160160,13,3,54,149,64,2147242175,2147574093,2147666641,2147378386,2624,0,-12,19308
1341433515,6467,88.7699966430664000,5.7305998802185060,34.9945983886718750,337.5498962402344000,736.9337768554688000,5.7393970489501950,34.0523681640625000,19,3,57,151,64,2147247158,2147576214,2147677905,2147377613,2233,0,-12,160
1341433579,6468,85.5500030517578100,5.9207000732421875,35.0177993774414060,342.3901977539062500,732.7467041015625000,5.8843541145324710,33.8047904968261700,15,3,58,145,63,2147243340,2147582646,2147688643,2147381549,1908,0,-12,21820
1341433640,6467,82.4700012207031200,5.9198999404907230,35.0153999328613300,347.4684143066406000,732.6729125976562000,5.8869061470031740,33.6304092407226560,15,3,58,173,64,2147245773,2147585124,2147700365,2147384795,1664,0,-12,14241
1341433704,6468,79.2699966430664000,5.9387998580932620,35.0164985656738300,348.7117919921875000,731.7373046875000000,5.9192600250244140,33.5708999633789060,15,3,57,155,63,2147248479,2147586655,2147715501,2147389604,1322,0,-12,55939
1341433765,6467,76.1699981689453100,6.0110998153686520,35.0167007446289060,346.7434997558594000,730.0056762695312000,5.9791088104248050,33.6044807434082000,16,3,56,153,64,2147249165,2147589407,2147729800,2147392260,1060,0,-12,25641
1341433829,6467,72.9199981689453100,6.0471000671386720,35.0144004821777340,347.5893859863281000,728.8538208007812000,6.0189018249511720,33.5543212890625000,15,3,60,159,64,2147252305,2147596292,2147752978,2147398221,849,0,-12,20912
1341433890,6468,69.8199996948242200,6.0777997970581055,35.0120010375976560,350.0029907226562500,727.9722290039062000,6.0493388175964355,33.4567718505859400,21,3,62,156,64,2147252140,2147599638,2147777604,2147403136,531,0,-12,2616
1341433954,6468,66.5500030517578100,6.0858998298645020,35.0093994140625000,352.3033142089844000,727.6229248046875000,6.0613980293273930,33.3735504150390600,16,3,67,162,64,2147253315,2147609274,2147810303,2147411395,3449,0,-12,45714
1341434015,6466,63.4000015258789060,6.1012997627258300,35.0080986022949200,353.9682006835937500,727.1743164062500000,6.0768828392028810,33.3101005554199200,17,3,72,166,64,2147258175,2147621741,2147842701,2147422015,3139,0,-12,10248
1341434079,6468,60.0800018310546900,6.1366000175476070,35.0049018859863300,354.5564880371094000,726.1627807617188000,6.1117801666259770,33.2717285156250000,19,3,83,171,64,2147265617,2147638093,2147895533,2147439282,2541,0,-12,56398
1341434141,6466,56.8300018310546900,6.1753997802734375,35.0022010803222660,355.8456115722656000,725.0895996093750000,6.1487941741943360,33.2094917297363300,20,3,90,185,65,2147274057,2147656562,2147962879,2147456319,2178,0,-12,60033
1341434205,6503,53.5400009155273440,6.2541999816894530,34.9976997375488300,356.8452148437500000,723.0692749023438000,6.2184262275695800,33.1391296386718750,22,3,101,216,66,2147286564,2147679830,2148026953,2147478491,1848,0,-12,2588
1341434266,6505,50.4900016784668000,6.3888998031616210,34.9984016418457000,356.8422851562500000,719.0313720703125000,6.3574309349060060,33.0643196105957000,25,3,125,239,64,2147302015,2147708538,2148115515,2147506966,1760,0,-12,34963
1341434330,6470,47.3499984741210940,6.4278001785278320,34.9952011108398440,357.4901123046875000,717.4945068359375000,6.4102802276611330,33.0150108337402340,34,3,144,273,65,2147329019,2147750660,2148223995,2147546088,1423,0,-11,6525
1341434391,6467,44.2900009155273440,6.5369000434875490,34.9973983764648440,357.1199035644531000,714.9141845703125000,6.4989318847656250,32.9794502258300800,33,3,164,273,66,2147365160,2147805891,2148358449,2147595963,1186,0,-12,57108
1341434455,6466,41.2999992370605500,6.6510000228881840,34.9836997985839840,357.7876892089844000,712.4230957031250000,6.5844359397888180,32.9119911193847660,41,3,197,292,64,2147405425,2147864346,2148497668,2147652323,24,0,-12,38680
1341434516,6505,38.9199981689453100,6.7680001258850100,34.9835014343261700,357.9678039550781000,708.3137207031250000,6.7252941131591800,32.8311691284179700,38,3,208,334,66,2147453708,2147927286,2148640416,2147708155,3574,0,-10,62200
1341434580,6468,36.6500015258789060,6.4903001785278320,34.9095993041992200,362.6841125488281000,713.6005859375000000,6.5440311431884770,32.7762489318847660,38,3,289,320,64,2147512626,2147998441,2148796982,2147773274,3045,0,-12,7839
1341434641,6470,34.9500007629394500,6.7873001098632810,34.9086990356445300,366.5285949707031000,707.8588867187500000,6.7408699989318850,32.5500488281250000,60,3,430,465,65,2147568273,2148061233,2148926596,2147826760,2311,0,-12,48188
1341434732,6470,32.4399986267089840,7.4278998374938965,34.9137001037597660,368.3251953125000000,691.7786254882812000,7.2897820472717285,32.2062187194824200,92,3,678,630,65,2147756680,2148281659,2149357841,2147995661,1387,0,-12,35800
1341434794,6470,30.1700000762939450,7.5139999389648440,34.9128990173339840,374.5120849609375000,686.6834106445312000,7.4629969596862790,31.9262599945068360,79,3,683,660,64,2148015743,2148579922,2149906531,2148210801,597,0,-12,50919
1341434885,6469,25.3899993896484380,7.6746001243591310,34.9084014892578100,384.0591125488281000,681.0322875976562000,7.6547179222106930,31.5421600341796880,77,3,711,553,63,2149094056,2149741773,2151782102,2148982920,3536,0,-12,19170
1341434946,6468,21.1299991607666000,8.0669002532958980,34.9173011779785160,392.7090148925781000,669.2039184570312000,8.0546932220458980,31.0887203216552730,87,3,753,617,63,2151030061,2151717900,2154522614,2150180694,2770,1,-10,43831
1341435034,6506,16.0499992370605470,10.2993001937866210,35.0392990112304700,388.6210937500000000,604.2277832031250000,10.2220096588134770,30.1499500274658200,86,3,734,550,63,2154287455,2155057750,2158550381,2152049384,2643,0,-12,24656
1341435095,6470,14.8900003433227540,10.7160997390747070,34.9766998291015600,382.2206115722656000,592.1049194335938000,10.6211795806884770,30.1449699401855470,86,3,739,442,62,2154675761,2155452589,2158977672,2152261768,2896,0,-12,52824
1341435208,6471,13.3299999237060550,10.9172000885009770,34.9753990173339840,375.0823059082031000,584.8588256835938000,10.8590497970581050,30.2416496276855470,82,3,793,545,58,2156885416,2157759794,2161428008,2153489361,2746,0,-10,35184
1341435300,6470,10.3599996566772460,11.1037998199462890,34.9837989807128900,370.5844116210937500,577.4193115234375000,11.1027202606201170,30.2609996795654300,81,3,655,536,60,2162082152,2163150207,2166846788,2156404127,2376,0,-11,29857
1341435374,6468,7.1100001335144040,11.7353000640869140,34.9916992187500000,360.7831115722656000,559.1350708007812000,11.6992902755737300,30.2797908782959000,83,3,495,533,59,2169016224,2170262948,2173598902,2160717179,2541,1,-8,31882
1341435429,6469,4.9299998283386230,11.7615003585815430,34.9961013793945300,356.3833923339844000,557.3408813476562000,11.7576599121093750,30.3883800506591800,80,3,481,501,60,2174550303,2175784845,2178436909,2164783962,1911,6,-15,39859
1341435479,6469,0.8999999761581421,0.0000000000000000,0.0000000000000000,355.2305908203125000,556.6168823242188000,11.7812099456787110,30.4133205413818360,73,3,473,478,60,2177485202,2178753732,2180969362,2167306541,2444,8,-13,61979
1341435534,6470,1.7000000476837158,0.0000000000000000,0.0000000000000000,353.7132873535156000,556.3045043945312000,11.7913599014282230,30.4560203552246100,78,3,466,469,60,2184672690,2185998792,2186965069,2175214829,1189,-18,-13,57090
